Regional Weather Roundup
Issued by NWS Albany, NY

Home | Current Version | Previous Version | Text Only | Print | Product List | Glossary On
Versions: 1 2 3 4 5 6 7 8 9 10 11 12 13 14 15 16 17 18 19 20 21 22 23 24 25 26 27 28 29 30 31 32 33 34 35 36 37 38 39 40 41 42 43 44 45 46 47 48 49 50
000
ASUS41 KALY 252010
RWRALY

NEW YORK STATE HOURLY WEATHER ROUNDUP
NATIONAL WEATHER SERVICE ALBANY NY
400 PM EDT FRI MAY 25 2018

NOTE: "FAIR" INDICATES FEW OR NO CLOUDS BELOW 12,000 FEET WITH NO
SIGNIFICANT WEATHER AND/OR NO OBSTRUCTIONS TO VISIBILITY.

NYZ032-033-038>043-046>054-057>066-NYZ062>081-082-084-252100-
EAST


CITY           SKY/WX    TMP DP  RH WIND       PRES   REMARKS
ALBANY         FAIR      86  49  27 W15G23    29.81F
GLENS FALLS    FAIR      84  51  31 SW12G22   29.76F
POUGHKEEPSIE   FAIR      88  47  24 W13       29.81F
NEWBURGH       SUNNY     86  54  32 SW14      29.86F
MONTGOMERY     FAIR      85  55  35 S16G24    29.83F
WHITE PLAINS   FAIR      84  49  29 SW9       29.86F
ISLIP          PTSUNNY   78  59  51 S20       29.89F
NEW YORK CITY  PTSUNNY   88  51  28 SW16      29.87F
CENTRAL PARK   FAIR      85  51  31 MISG      29.90F
$$

NYZ005>009-017-018-044>046-055-056-252100-
CENTRAL


CITY           SKY/WX    TMP DP  RH WIND       PRES   REMARKS
FULTON         FAIR      83  54  36 W12       29.83F
SYRACUSE       FAIR      83  54  36 W13G21    29.83F
ROME           FAIR      83  52  34 W14G23    29.85F
ELMIRA         FAIR      85  50  29 W12       29.87F
BINGHAMTON     FAIR      80  47  31 W15G21    29.91F
$$

NYZ026>034-041>043-087-252100-
NORTH


CITY           SKY/WX    TMP DP  RH WIND       PRES   REMARKS
WATERTOWN      FAIR      76  54  46 SW10G21   29.81F
FORT DRUM      NOT AVBL
OGDENSBURG     FAIR      71  54  56 S12G17    29.78F
MASSENA        PTSUNNY   77  58  51 W20G28    29.76S
SARANAC LAKE   PTSUNNY   74  51  44 SW14G24   29.81F
PLATTSBURGH    FAIR      81  56  42 W6        29.70F
$$

NYZ001>004-010>016-019>021-085-252100-
WEST


CITY           SKY/WX    TMP DP  RH WIND       PRES   REMARKS
NIAGARA FALLS  FAIR      82  52  35 SW21G28   29.86F
BUFFALO        FAIR      77  51  40 W17G23    29.89F
DUNKIRK        FAIR      79  52  38 SW10      29.90F
JAMESTOWN      FAIR      79  52  38 W9        29.95
WELLSVILLE     FAIR      81  49  32 SW9G20    29.96F
ROCHESTER      PTSUNNY   84  51  31 W14       29.85F
PENN YAN         N/A     86  48  26 W8        29.87
$$

             KEY
       WCI = WIND CHILL INDEX
       VSB = VISIBILITY
       HX  = HEAT INDEX
$$



USA.gov is the U.S. government's official web portal to all federal, state and local government web resources and services.